Location: Chakepay
(13.3931°S, 72.1925°W)
Time: 10:07:35
(UTC+00:00)

Cosmos 2369 Rocket - Pass Details

Date: 15 November 2019
Orbit: 830 x 851 km, 71.0° (Epoch: 06 December)

Event Time Altitude Azimuth Distance (km) Brightness Sun altitude
Exits shadow 07:14:55 22° 163° (SSE) 1,762 4.2 -39.0°
Drops below altitude 10° 07:16:51 10° 163° (SSE) 2,479 5.1 -38.6°
Sets 07:19:19 0° 163° (SSE) 3,421 6.0 -38.2°
